Regional Weather Roundup
Issued by NWS

Home | Current Version | Previous Version | Text Only | Print | Product List | Glossary Off
Versions: 1 2 3 4 5 6 7 8 9 10 11 12 13 14 15 16 17 18 19 20 21 22 23 24 25 26 27

000
ASUS45 KCYS 162210
RWRWY

WYOMING REGIONAL WEATHER ROUNDUP
NATIONAL WEATHER SERVICE CHEYENNE WY
400 PM MDT MON OCT 16 2017

NOTE:  "FAIR" INDICATES FEW OR NO CLOUDS BELOW 12,000 FEET
WITH NO SIGNIFICANT WEATHER AND/OR OBSTRUCTIONS TO VISIBILITY.

WYZ001-162300-
YELLOWSTONE NATIONAL PARK

CITY           SKY/WX    TMP DP  RH WIND       PRES   REMARKS
LK YELLOWSTONE   N/A     50  14  23 MISG      30.40F
W YELLOWSTONE  NOT AVBL

$$
WYZ002>013-054>058-071-098>099-162300-
NORTHERN WYOMING

CITY           SKY/WX    TMP DP  RH WIND       PRES   REMARKS
JACKSON        FAIR      57  24  28 VRB5      30.37F
CODY           FAIR      68  17  14 NE8       30.19S
GREYBULL       FAIR      69  21  16 S5        30.15F
WORLAND        FAIR      68  27  21 VRB6      30.17F
SHERIDAN       FAIR      74  24  15 N15       30.11R
BUFFALO        FAIR      71  15  11 CALM      30.17S
GILLETTE       FAIR      70  22  16 NW15      30.13S
HULETT         FAIR      68  25  19 W10       30.13S
NEWCASTLE      FAIR      68  21  17 NW8G16    30.13S

$$
WYZ014>020-022>026-101>103-162300-
CENTRAL WYOMING

CITY           SKY/WX    TMP DP  RH WIND       PRES   REMARKS
BIG PINEY      FAIR      61  11  14 S3        30.36F
PINEDALE       FAIR      61  10  13 NW10      30.36F
DUBOIS         FAIR      59   7  12 NW23      30.31F
LANDER         FAIR      66  20  17 SE5       30.22F
RIVERTON       FAIR      61  29  29 SE3       30.23F
CASPER         FAIR      68  11  11 W15       30.22R
DOUGLAS        FAIR      71  12  10 NW21G26   30.19S

$$
WYZ021-027>030-104>119-162300-
SOUTHERN WYOMING

CITY           SKY/WX    TMP DP  RH WIND       PRES   REMARKS
EVANSTON       FAIR      64   6  10 SW15G26   30.40S
KEMMERER       FAIR      61   9  12 W14G22    30.40S
FORT BRIDGER   FAIR      68   4   8 W18       30.41S
ROCK SPRINGS   FAIR      64  -2   7 W18       30.36S
DIXON          FAIR      67   5   9 SW9       30.38S
RAWLINS        FAIR      64  -1   7 W18G30    30.32S
SARATOGA       FAIR      64   5   9 W16G22    30.37R
LARAMIE        FAIR      66  -2   6 W18       30.31S
CHEYENNE       FAIR      72   4   7 W22       30.24R
TORRINGTON     FAIR      72  10   9 N12       30.13R
PINE BLUFFS    FAIR      73  10   9 N20G28    30.18S

$$




USA.gov is the U.S. government's official web portal to all federal, state and local government web resources and services.